Volver al catálogo

STARLINK-34381

ActivoComunicacionesVLEO
NORAD 64282·PAYLOAD·🇺🇸 United States

Lanzado Jun 4, 2025 desde Vandenberg Space Force Base

Loading…

Próximos Pases (próximas 24 horas)

TLE

ActualizadoSource: CelesTrak SupGP

Época: Sep 14, 2026, 21:29 UTC

1 64282C 25120AC  26257.89562500  .00000059  00000+0  17571-5 0  2575
2 64282  53.1573 316.2413 0001208  91.3945  33.9287 15.34375265    14

Sigue STARLINK-34381 en tiempo real con AllMySat

Download on the App Store